User: anonymous   Login
Location: Huntsville
(41.2590°N, 111.7678°W)
Time: 08:51:39
(UTC+00:00)
Language:

Courier 1B Rocket - Orbit

View from above orbital plane
View from above orbital plane
View from above satellite
View from above satellite

Ground track
Ground track

The orbit data is extracted from the following two-line orbital elements,

1 00059U 60013B   22267.57309881  .00000124  00000-0  51265-4 0  9994
2 00059  28.2478 279.1341 0189284  45.3572 316.2240 13.53006057 58610
Epoch (UTC): 24 September 2022 13:45:15
Eccentricity: 0.0189284
inclination: 28.2478°
perigee height: 920 km
apogee height: 1202 km
right ascension of ascending node: 279.1341°
argument of perigee: 45.3572°
revolutions per day: 13.53006057
mean anomaly at epoch: 316.2240°
orbit number at epoch: 5861

The dashed part of the orbit path shows where the satellite is in the earth's shadow,  

DLR